owner,sensor,date,latitude,longitude,air_temperature,qcFlag 
DISL,ioos:station:DISL:DISL:1,2017-08-01T00:00:00Z,30.2513,-88.0778,29.02,1111122 
DISL,ioos:station:DISL:DISL:1,2017-08-01T00:30:00Z,30.2513,-88.0778,28.28,1111122 
DISL,ioos:station:DISL:DISL:1,2017-08-01T01:00:00Z,30.2513,-88.0778,28.15,1111122 
DISL,ioos:station:DISL:DISL:1,2017-08-01T01:30:00Z,30.2513,-88.0778,28.21,1111122 
DISL,ioos:station:DISL:DISL:1,2017-08-01T02:00:00Z,30.2513,-88.0778,28.17,1111122 
DISL,ioos:station:DISL:DISL:1,2017-08-01T02:30:00Z,30.2513,-88.0778,28.1,1111122 
DISL,ioos:station:DISL:DISL:1,2017-08-01T03:00:00Z,30.2513,-88.0778,28.17,1111122 
DISL,ioos:station:DISL:DISL:1,2017-08-01T03:30:00Z,30.2513,-88.0778,28.1,1111122 
DISL,ioos:station:DISL:DISL:1,2017-08-01T04:00:00Z,30.2513,-88.0778,28.24,1111122 
DISL,ioos:station:DISL:DISL:1,2017-08-01T04:30:00Z,30.2513,-88.0778,28.18,1111122 
DISL,ioos:station:DISL:DISL:1,2017-08-01T05:00:00Z,30.2513,-88.0778,28.48,1111122 
DISL,ioos:station:DISL:DISL:1,2017-08-01T05:30:00Z,30.2513,-88.0778,28.48,1111122 
DISL,ioos:station:DISL:DISL:1,2017-08-01T06:00:00Z,30.2513,-88.0778,27.97,1111122 
DISL,ioos:station:DISL:DISL:1,2017-08-01T06:30:00Z,30.2513,-88.0778,27.66,1111122 
DISL,ioos:station:DISL:DISL:1,2017-08-01T07:00:00Z,30.2513,-88.0778,27.73,1111122 
DISL,ioos:station:DISL:DISL:1,2017-08-01T07:30:00Z,30.2513,-88.0778,27.5,1111122 
DISL,ioos:station:DISL:DISL:1,2017-08-01T08:00:00Z,30.2513,-88.0778,27.44,1111122 
DISL,ioos:station:DISL:DISL:1,2017-08-01T08:30:00Z,30.2513,-88.0778,27.44,1111122 
DISL,ioos:station:DISL:DISL:1,2017-08-01T09:00:00Z,30.2513,-88.0778,27.1,1111122 
DISL,ioos:station:DISL:DISL:1,2017-08-01T09:30:00Z,30.2513,-88.0778,27.34,1111122 
DISL,ioos:station:DISL:DISL:1,2017-08-01T10:00:00Z,30.2513,-88.0778,26.89,1111122 
DISL,ioos:station:DISL:DISL:1,2017-08-01T10:30:00Z,30.2513,-88.0778,26.66,1111122 
DISL,ioos:station:DISL:DISL:1,2017-08-01T11:00:00Z,30.2513,-88.0778,26.38,1111122 
DISL,ioos:station:DISL:DISL:1,2017-08-01T11:30:00Z,30.2513,-88.0778,26.62,1111122 
DISL,ioos:station:DISL:DISL:1,2017-08-01T12:00:00Z,30.2513,-88.0778,26.62,1111122 
DISL,ioos:station:DISL:DISL:1,2017-08-01T12:30:00Z,30.2513,-88.0778,26.83,1111122 
DISL,ioos:station:DISL:DISL:1,2017-08-01T13:00:00Z,30.2513,-88.0778,26.53,1111122 
DISL,ioos:station:DISL:DISL:1,2017-08-01T13:30:00Z,30.2513,-88.0778,26.46,1111122 
DISL,ioos:station:DISL:DISL:1,2017-08-01T14:00:00Z,30.2513,-88.0778,26.46,1111122 
DISL,ioos:station:DISL:DISL:1,2017-08-01T14:30:00Z,30.2513,-88.0778,27.04,1111122 
DISL,ioos:station:DISL:DISL:1,2017-08-01T15:00:00Z,30.2513,-88.0778,27.41,1111122 
DISL,ioos:station:DISL:DISL:1,2017-08-01T15:30:00Z,30.2513,-88.0778,27.84,1111122 
DISL,ioos:station:DISL:DISL:1,2017-08-01T16:00:00Z,30.2513,-88.0778,28.12,1111122 
DISL,ioos:station:DISL:DISL:1,2017-08-01T16:30:00Z,30.2513,-88.0778,28.25,1111122 
DISL,ioos:station:DISL:DISL:1,2017-08-01T17:00:00Z,30.2513,-88.0778,28.42,1111122 
DISL,ioos:station:DISL:DISL:1,2017-08-01T17:30:00Z,30.2513,-88.0778,28.39,1111122 
DISL,ioos:station:DISL:DISL:1,2017-08-01T18:00:00Z,30.2513,-88.0778,28.61,1111122 
DISL,ioos:station:DISL:DISL:1,2017-08-01T18:30:00Z,30.2513,-88.0778,28.67,1111122 
DISL,ioos:station:DISL:DISL:1,2017-08-01T19:00:00Z,30.2513,-88.0778,28.77,1111122 
DISL,ioos:station:DISL:DISL:1,2017-08-01T19:30:00Z,30.2513,-88.0778,28.89,1111122 
DISL,ioos:station:DISL:DISL:1,2017-08-01T20:00:00Z,30.2513,-88.0778,29.16,1111122 
DISL,ioos:station:DISL:DISL:1,2017-08-01T20:30:00Z,30.2513,-88.0778,28.82,1111122 
DISL,ioos:station:DISL:DISL:1,2017-08-01T21:00:00Z,30.2513,-88.0778,28.55,1111122 
DISL,ioos:station:DISL:DISL:1,2017-08-01T21:30:00Z,30.2513,-88.0778,28.89,1111122 
DISL,ioos:station:DISL:DISL:1,2017-08-01T22:00:00Z,30.2513,-88.0778,28.76,1111122 
DISL,ioos:station:DISL:DISL:1,2017-08-01T22:30:00Z,30.2513,-88.0778,28.89,1111122 
DISL,ioos:station:DISL:DISL:1,2017-08-01T23:00:00Z,30.2513,-88.0778,28.96,1111122 
DISL,ioos:station:DISL:DISL:1,2017-08-01T23:30:00Z,30.2513,-88.0778,28.91,1111122 
DISL,ioos:station:DISL:DISL:1,2017-08-02T00:00:00Z,30.2513,-88.0778,28.68,1111122 
DISL,ioos:station:DISL:DISL:1,2017-08-02T00:30:00Z,30.2513,-88.0778,28.29,1111122 
DISL,ioos:station:DISL:DISL:1,2017-08-02T01:00:00Z,30.2513,-88.0778,28.09,1111122 
DISL,ioos:station:DISL:DISL:1,2017-08-02T01:30:00Z,30.2513,-88.0778,28.1,1111122 
DISL,ioos:station:DISL:DISL:1,2017-08-02T02:00:00Z,30.2513,-88.0778,28.21,1111122 
DISL,ioos:station:DISL:DISL:1,2017-08-02T02:30:00Z,30.2513,-88.0778,28.34,1111122 
DISL,ioos:station:DISL:DISL:1,2017-08-02T03:00:00Z,30.2513,-88.0778,28.34,1111122 
DISL,ioos:station:DISL:DISL:1,2017-08-02T03:30:00Z,30.2513,-88.0778,28.31,1111122 
DISL,ioos:station:DISL:DISL:1,2017-08-02T04:00:00Z,30.2513,-88.0778,28.41,1111122 
DISL,ioos:station:DISL:DISL:1,2017-08-02T04:30:00Z,30.2513,-88.0778,28.31,1111122 
DISL,ioos:station:DISL:DISL:1,2017-08-02T05:00:00Z,30.2513,-88.0778,28.0,1111122 
DISL,ioos:station:DISL:DISL:1,2017-08-02T05:30:00Z,30.2513,-88.0778,28.34,1111122 
DISL,ioos:station:DISL:DISL:1,2017-08-02T06:00:00Z,30.2513,-88.0778,28.25,1111122 
DISL,ioos:station:DISL:DISL:1,2017-08-02T06:30:00Z,30.2513,-88.0778,28.23,1111122 
DISL,ioos:station:DISL:DISL:1,2017-08-02T07:00:00Z,30.2513,-88.0778,28.13,1111122 
DISL,ioos:station:DISL:DISL:1,2017-08-02T07:30:00Z,30.2513,-88.0778,28.16,1111122 
DISL,ioos:station:DISL:DISL:1,2017-08-02T08:00:00Z,30.2513,-88.0778,27.96,1111122 
DISL,ioos:station:DISL:DISL:1,2017-08-02T08:30:00Z,30.2513,-88.0778,27.96,1111122 
DISL,ioos:station:DISL:DISL:1,2017-08-02T09:00:00Z,30.2513,-88.0778,27.58,1111122 
DISL,ioos:station:DISL:DISL:1,2017-08-02T09:30:00Z,30.2513,-88.0778,27.61,1111122 
DISL,ioos:station:DISL:DISL:1,2017-08-02T10:00:00Z,30.2513,-88.0778,27.51,1111122 
DISL,ioos:station:DISL:DISL:1,2017-08-02T10:30:00Z,30.2513,-88.0778,27.34,1111122 
DISL,ioos:station:DISL:DISL:1,2017-08-02T11:00:00Z,30.2513,-88.0778,27.44,1111122 
DISL,ioos:station:DISL:DISL:1,2017-08-02T11:30:00Z,30.2513,-88.0778,27.37,1111122 
DISL,ioos:station:DISL:DISL:1,2017-08-02T12:00:00Z,30.2513,-88.0778,26.76,1111122 
DISL,ioos:station:DISL:DISL:1,2017-08-02T12:30:00Z,30.2513,-88.0778,26.28,1111122 
DISL,ioos:station:DISL:DISL:1,2017-08-02T13:00:00Z,30.2513,-88.0778,26.42,1111122 
DISL,ioos:station:DISL:DISL:1,2017-08-02T13:30:00Z,30.2513,-88.0778,26.95,1111122 
DISL,ioos:station:DISL:DISL:1,2017-08-02T14:00:00Z,30.2513,-88.0778,26.91,1111122 
DISL,ioos:station:DISL:DISL:1,2017-08-02T14:30:00Z,30.2513,-88.0778,26.43,1111122 
DISL,ioos:station:DISL:DISL:1,2017-08-02T15:00:00Z,30.2513,-88.0778,26.49,1111122 
DISL,ioos:station:DISL:DISL:1,2017-08-02T15:30:00Z,30.2513,-88.0778,26.85,1111122 
DISL,ioos:station:DISL:DISL:1,2017-08-02T16:00:00Z,30.2513,-88.0778,27.05,1111122 
DISL,ioos:station:DISL:DISL:1,2017-08-02T16:30:00Z,30.2513,-88.0778,27.28,1111122 
DISL,ioos:station:DISL:DISL:1,2017-08-02T17:00:00Z,30.2513,-88.0778,27.48,1111122 
DISL,ioos:station:DISL:DISL:1,2017-08-02T17:30:00Z,30.2513,-88.0778,27.75,1111122 
DISL,ioos:station:DISL:DISL:1,2017-08-02T18:00:00Z,30.2513,-88.0778,28.16,1111122 
DISL,ioos:station:DISL:DISL:1,2017-08-02T18:30:00Z,30.2513,-88.0778,28.72,1111122 
DISL,ioos:station:DISL:DISL:1,2017-08-02T19:00:00Z,30.2513,-88.0778,28.86,1111122 
DISL,ioos:station:DISL:DISL:1,2017-08-02T19:30:00Z,30.2513,-88.0778,28.89,1111122 
DISL,ioos:station:DISL:DISL:1,2017-08-02T20:00:00Z,30.2513,-88.0778,28.77,1111122 
DISL,ioos:station:DISL:DISL:1,2017-08-02T20:30:00Z,30.2513,-88.0778,29.36,1111122 
DISL,ioos:station:DISL:DISL:1,2017-08-02T21:00:00Z,30.2513,-88.0778,29.4,1111122 
DISL,ioos:station:DISL:DISL:1,2017-08-02T21:30:00Z,30.2513,-88.0778,29.47,1111122 
DISL,ioos:station:DISL:DISL:1,2017-08-02T22:00:00Z,30.2513,-88.0778,29.37,1111122 
DISL,ioos:station:DISL:DISL:1,2017-08-02T22:30:00Z,30.2513,-88.0778,29.57,1111122 
DISL,ioos:station:DISL:DISL:1,2017-08-02T23:00:00Z,30.2513,-88.0778,29.51,1111122 
DISL,ioos:station:DISL:DISL:1,2017-08-02T23:30:00Z,30.2513,-88.0778,29.29,1111122 
DISL,ioos:station:DISL:DISL:1,2017-08-03T00:00:00Z,30.2513,-88.0778,29.09,1111122 
DISL,ioos:station:DISL:DISL:1,2017-08-03T00:30:00Z,30.2513,-88.0778,28.83,1111122 
DISL,ioos:station:DISL:DISL:1,2017-08-03T01:00:00Z,30.2513,-88.0778,28.81,1111122 
DISL,ioos:station:DISL:DISL:1,2017-08-03T01:30:00Z,30.2513,-88.0778,28.86,1111122 
DISL,ioos:station:DISL:DISL:1,2017-08-03T02:00:00Z,30.2513,-88.0778,28.89,1111122 
DISL,ioos:station:DISL:DISL:1,2017-08-03T02:30:00Z,30.2513,-88.0778,28.86,1111122 
DISL,ioos:station:DISL:DISL:1,2017-08-03T03:00:00Z,30.2513,-88.0778,28.86,1111122 
DISL,ioos:station:DISL:DISL:1,2017-08-03T03:30:00Z,30.2513,-88.0778,28.69,1111122 
DISL,ioos:station:DISL:DISL:1,2017-08-03T04:00:00Z,30.2513,-88.0778,28.76,1111122 
DISL,ioos:station:DISL:DISL:1,2017-08-03T04:30:00Z,30.2513,-88.0778,28.65,1111122 
DISL,ioos:station:DISL:DISL:1,2017-08-03T05:00:00Z,30.2513,-88.0778,28.55,1111122 
DISL,ioos:station:DISL:DISL:1,2017-08-03T05:30:00Z,30.2513,-88.0778,27.42,1111122 
DISL,ioos:station:DISL:DISL:1,2017-08-03T06:00:00Z,30.2513,-88.0778,26.52,1111122 
DISL,ioos:station:DISL:DISL:1,2017-08-03T06:30:00Z,30.2513,-88.0778,27.34,1111122 
DISL,ioos:station:DISL:DISL:1,2017-08-03T07:00:00Z,30.2513,-88.0778,27.44,1111122 
DISL,ioos:station:DISL:DISL:1,2017-08-03T07:30:00Z,30.2513,-88.0778,27.68,1111122 
DISL,ioos:station:DISL:DISL:1,2017-08-03T08:00:00Z,30.2513,-88.0778,26.89,1111122 
DISL,ioos:station:DISL:DISL:1,2017-08-03T08:30:00Z,30.2513,-88.0778,26.61,1111122 
DISL,ioos:station:DISL:DISL:1,2017-08-03T09:00:00Z,30.2513,-88.0778,26.72,1111122 
DISL,ioos:station:DISL:DISL:1,2017-08-03T09:30:00Z,30.2513,-88.0778,26.55,1111122 
DISL,ioos:station:DISL:DISL:1,2017-08-03T10:00:00Z,30.2513,-88.0778,26.31,1111122 
DISL,ioos:station:DISL:DISL:1,2017-08-03T10:30:00Z,30.2513,-88.0778,26.62,1111122 
DISL,ioos:station:DISL:DISL:1,2017-08-03T11:00:00Z,30.2513,-88.0778,26.62,1111122 
DISL,ioos:station:DISL:DISL:1,2017-08-03T11:30:00Z,30.2513,-88.0778,26.21,1111122 
DISL,ioos:station:DISL:DISL:1,2017-08-03T12:00:00Z,30.2513,-88.0778,26.14,1111122 
DISL,ioos:station:DISL:DISL:1,2017-08-03T12:30:00Z,30.2513,-88.0778,26.18,1111122 
DISL,ioos:station:DISL:DISL:1,2017-08-03T13:00:00Z,30.2513,-88.0778,25.49,1111122 
DISL,ioos:station:DISL:DISL:1,2017-08-03T13:30:00Z,30.2513,-88.0778,25.37,1111122 
DISL,ioos:station:DISL:DISL:1,2017-08-03T14:00:00Z,30.2513,-88.0778,25.27,1111122 
DISL,ioos:station:DISL:DISL:1,2017-08-03T14:30:00Z,30.2513,-88.0778,25.58,1111122 
DISL,ioos:station:DISL:DISL:1,2017-08-03T15:00:00Z,30.2513,-88.0778,25.37,1111122 
DISL,ioos:station:DISL:DISL:1,2017-08-03T15:30:00Z,30.2513,-88.0778,25.66,1111122 
DISL,ioos:station:DISL:DISL:1,2017-08-03T16:00:00Z,30.2513,-88.0778,25.51,1111122 
DISL,ioos:station:DISL:DISL:1,2017-08-03T16:30:00Z,30.2513,-88.0778,25.27,1111122 
DISL,ioos:station:DISL:DISL:1,2017-08-03T17:00:00Z,30.2513,-88.0778,25.08,1111122 
DISL,ioos:station:DISL:DISL:1,2017-08-03T17:30:00Z,30.2513,-88.0778,24.98,1111122 
DISL,ioos:station:DISL:DISL:1,2017-08-03T18:00:00Z,30.2513,-88.0778,24.56,1111122 
DISL,ioos:station:DISL:DISL:1,2017-08-03T18:30:00Z,30.2513,-88.0778,24.53,1111122 
DISL,ioos:station:DISL:DISL:1,2017-08-03T19:00:00Z,30.2513,-88.0778,24.56,1111122 
DISL,ioos:station:DISL:DISL:1,2017-08-03T19:30:00Z,30.2513,-88.0778,25.02,1111122 
DISL,ioos:station:DISL:DISL:1,2017-08-03T20:00:00Z,30.2513,-88.0778,25.15,1111122 
DISL,ioos:station:DISL:DISL:1,2017-08-03T20:30:00Z,30.2513,-88.0778,24.7,1111122 
DISL,ioos:station:DISL:DISL:1,2017-08-03T21:00:00Z,30.2513,-88.0778,24.67,1111122 
DISL,ioos:station:DISL:DISL:1,2017-08-03T21:30:00Z,30.2513,-88.0778,25.01,1111122 
DISL,ioos:station:DISL:DISL:1,2017-08-03T22:00:00Z,30.2513,-88.0778,25.35,1111122 
DISL,ioos:station:DISL:DISL:1,2017-08-03T22:30:00Z,30.2513,-88.0778,25.42,1111122 
DISL,ioos:station:DISL:DISL:1,2017-08-03T23:00:00Z,30.2513,-88.0778,25.49,1111122 
DISL,ioos:station:DISL:DISL:1,2017-08-03T23:30:00Z,30.2513,-88.0778,25.73,1111122 
DISL,ioos:station:DISL:DISL:1,2017-08-04T00:00:00Z,30.2513,-88.0778,25.76,1111122 
DISL,ioos:station:DISL:DISL:1,2017-08-04T00:30:00Z,30.2513,-88.0778,25.97,1111122 
DISL,ioos:station:DISL:DISL:1,2017-08-04T01:00:00Z,30.2513,-88.0778,25.9,1111122 
DISL,ioos:station:DISL:DISL:1,2017-08-04T01:30:00Z,30.2513,-88.0778,25.97,1111122 
DISL,ioos:station:DISL:DISL:1,2017-08-04T02:00:00Z,30.2513,-88.0778,26.24,1111122 
DISL,ioos:station:DISL:DISL:1,2017-08-04T02:30:00Z,30.2513,-88.0778,26.69,1111122 
DISL,ioos:station:DISL:DISL:1,2017-08-04T03:00:00Z,30.2513,-88.0778,26.79,1111122 
DISL,ioos:station:DISL:DISL:1,2017-08-04T03:30:00Z,30.2513,-88.0778,26.79,1111122 
DISL,ioos:station:DISL:DISL:1,2017-08-04T04:00:00Z,30.2513,-88.0778,27.1,1111122 
DISL,ioos:station:DISL:DISL:1,2017-08-04T04:30:00Z,30.2513,-88.0778,27.07,1111122 
DISL,ioos:station:DISL:DISL:1,2017-08-04T05:00:00Z,30.2513,-88.0778,27.13,1111122 
DISL,ioos:station:DISL:DISL:1,2017-08-04T05:30:00Z,30.2513,-88.0778,27.27,1111122 
DISL,ioos:station:DISL:DISL:1,2017-08-04T06:00:00Z,30.2513,-88.0778,27.48,1111122 
DISL,ioos:station:DISL:DISL:1,2017-08-04T06:30:00Z,30.2513,-88.0778,27.53,1111122 
DISL,ioos:station:DISL:DISL:1,2017-08-04T07:00:00Z,30.2513,-88.0778,27.66,1111122 
DISL,ioos:station:DISL:DISL:1,2017-08-04T07:30:00Z,30.2513,-88.0778,27.73,1111122 
DISL,ioos:station:DISL:DISL:1,2017-08-04T08:00:00Z,30.2513,-88.0778,27.76,1111122 
DISL,ioos:station:DISL:DISL:1,2017-08-04T08:30:00Z,30.2513,-88.0778,27.73,1111122 
DISL,ioos:station:DISL:DISL:1,2017-08-04T09:00:00Z,30.2513,-88.0778,27.97,1111122 
DISL,ioos:station:DISL:DISL:1,2017-08-04T09:30:00Z,30.2513,-88.0778,27.87,1111122 
DISL,ioos:station:DISL:DISL:1,2017-08-04T10:00:00Z,30.2513,-88.0778,27.87,1111122 
DISL,ioos:station:DISL:DISL:1,2017-08-04T10:30:00Z,30.2513,-88.0778,27.83,1111122 
DISL,ioos:station:DISL:DISL:1,2017-08-04T11:00:00Z,30.2513,-88.0778,27.93,1111122 
DISL,ioos:station:DISL:DISL:1,2017-08-04T11:30:00Z,30.2513,-88.0778,28.0,1111122 
DISL,ioos:station:DISL:DISL:1,2017-08-04T12:00:00Z,30.2513,-88.0778,27.97,1111122 
DISL,ioos:station:DISL:DISL:1,2017-08-04T12:30:00Z,30.2513,-88.0778,28.0,1111122 
DISL,ioos:station:DISL:DISL:1,2017-08-04T13:00:00Z,30.2513,-88.0778,25.26,1111122 
DISL,ioos:station:DISL:DISL:1,2017-08-04T13:30:00Z,30.2513,-88.0778,24.98,1111122 
DISL,ioos:station:DISL:DISL:1,2017-08-04T14:00:00Z,30.2513,-88.0778,24.6,1111122 
DISL,ioos:station:DISL:DISL:1,2017-08-04T14:30:00Z,30.2513,-88.0778,24.72,1111122 
DISL,ioos:station:DISL:DISL:1,2017-08-04T15:00:00Z,30.2513,-88.0778,24.96,1111122 
DISL,ioos:station:DISL:DISL:1,2017-08-04T15:30:00Z,30.2513,-88.0778,24.42,1111122 
DISL,ioos:station:DISL:DISL:1,2017-08-04T16:00:00Z,30.2513,-88.0778,24.28,1111122 
DISL,ioos:station:DISL:DISL:1,2017-08-04T16:30:00Z,30.2513,-88.0778,25.1,1111122 
DISL,ioos:station:DISL:DISL:1,2017-08-04T17:00:00Z,30.2513,-88.0778,25.38,1111122 
DISL,ioos:station:DISL:DISL:1,2017-08-04T17:30:00Z,30.2513,-88.0778,25.98,1111122 
DISL,ioos:station:DISL:DISL:1,2017-08-04T18:00:00Z,30.2513,-88.0778,26.59,1111122 
DISL,ioos:station:DISL:DISL:1,2017-08-04T18:30:00Z,30.2513,-88.0778,26.98,1111122 
DISL,ioos:station:DISL:DISL:1,2017-08-04T19:00:00Z,30.2513,-88.0778,27.45,1111122 
DISL,ioos:station:DISL:DISL:1,2017-08-04T19:30:00Z,30.2513,-88.0778,28.0,1111122 
DISL,ioos:station:DISL:DISL:1,2017-08-04T20:00:00Z,30.2513,-88.0778,27.6,1111122 
DISL,ioos:station:DISL:DISL:1,2017-08-04T20:30:00Z,30.2513,-88.0778,27.84,1111122 
DISL,ioos:station:DISL:DISL:1,2017-08-04T21:00:00Z,30.2513,-88.0778,27.5,1111122 
DISL,ioos:station:DISL:DISL:1,2017-08-04T21:30:00Z,30.2513,-88.0778,27.4,1111122 
DISL,ioos:station:DISL:DISL:1,2017-08-04T22:00:00Z,30.2513,-88.0778,27.48,1111122 
DISL,ioos:station:DISL:DISL:1,2017-08-04T22:30:00Z,30.2513,-88.0778,27.45,1111122 
DISL,ioos:station:DISL:DISL:1,2017-08-04T23:00:00Z,30.2513,-88.0778,27.45,1111122 
DISL,ioos:station:DISL:DISL:1,2017-08-04T23:30:00Z,30.2513,-88.0778,27.49,1111122 
DISL,ioos:station:DISL:DISL:1,2017-08-05T00:00:00Z,30.2513,-88.0778,27.52,1111122 
DISL,ioos:station:DISL:DISL:1,2017-08-05T00:30:00Z,30.2513,-88.0778,27.32,1111122 
DISL,ioos:station:DISL:DISL:1,2017-08-05T01:00:00Z,30.2513,-88.0778,27.04,1111122 
DISL,ioos:station:DISL:DISL:1,2017-08-05T01:30:00Z,30.2513,-88.0778,26.84,1111122 
DISL,ioos:station:DISL:DISL:1,2017-08-05T02:00:00Z,30.2513,-88.0778,26.72,1111122 
DISL,ioos:station:DISL:DISL:1,2017-08-05T02:30:00Z,30.2513,-88.0778,26.76,1111122 
DISL,ioos:station:DISL:DISL:1,2017-08-05T03:00:00Z,30.2513,-88.0778,26.79,1111122 
DISL,ioos:station:DISL:DISL:1,2017-08-05T03:30:00Z,30.2513,-88.0778,26.93,1111122 
DISL,ioos:station:DISL:DISL:1,2017-08-05T04:00:00Z,30.2513,-88.0778,27.03,1111122 
DISL,ioos:station:DISL:DISL:1,2017-08-05T04:30:00Z,30.2513,-88.0778,27.06,1111122 
DISL,ioos:station:DISL:DISL:1,2017-08-05T05:00:00Z,30.2513,-88.0778,27.34,1111122 
DISL,ioos:station:DISL:DISL:1,2017-08-05T05:30:00Z,30.2513,-88.0778,27.44,1111122 
DISL,ioos:station:DISL:DISL:1,2017-08-05T06:00:00Z,30.2513,-88.0778,27.32,1111122 
DISL,ioos:station:DISL:DISL:1,2017-08-05T06:30:00Z,30.2513,-88.0778,27.25,1111122 
DISL,ioos:station:DISL:DISL:1,2017-08-05T07:00:00Z,30.2513,-88.0778,27.15,1111122 
DISL,ioos:station:DISL:DISL:1,2017-08-05T07:30:00Z,30.2513,-88.0778,27.12,1111122 
DISL,ioos:station:DISL:DISL:1,2017-08-05T08:00:00Z,30.2513,-88.0778,26.98,1111122 
DISL,ioos:station:DISL:DISL:1,2017-08-05T08:30:00Z,30.2513,-88.0778,26.78,1111122 
DISL,ioos:station:DISL:DISL:1,2017-08-05T09:00:00Z,30.2513,-88.0778,26.69,1111122 
DISL,ioos:station:DISL:DISL:1,2017-08-05T09:30:00Z,30.2513,-88.0778,26.07,1111122 
DISL,ioos:station:DISL:DISL:1,2017-08-05T10:00:00Z,30.2513,-88.0778,25.87,1111122 
DISL,ioos:station:DISL:DISL:1,2017-08-05T10:30:00Z,30.2513,-88.0778,25.9,1111122 
DISL,ioos:station:DISL:DISL:1,2017-08-05T11:00:00Z,30.2513,-88.0778,25.8,1111122 
DISL,ioos:station:DISL:DISL:1,2017-08-05T11:30:00Z,30.2513,-88.0778,25.66,1111122 
DISL,ioos:station:DISL:DISL:1,2017-08-05T12:00:00Z,30.2513,-88.0778,25.9,1111122 
DISL,ioos:station:DISL:DISL:1,2017-08-05T12:30:00Z,30.2513,-88.0778,25.87,1111122 
DISL,ioos:station:DISL:DISL:1,2017-08-05T13:00:00Z,30.2513,-88.0778,25.94,1111122 
DISL,ioos:station:DISL:DISL:1,2017-08-05T13:30:00Z,30.2513,-88.0778,26.17,1111122 
DISL,ioos:station:DISL:DISL:1,2017-08-05T14:00:00Z,30.2513,-88.0778,26.09,1111122 
DISL,ioos:station:DISL:DISL:1,2017-08-05T14:30:00Z,30.2513,-88.0778,26.39,1111122 
DISL,ioos:station:DISL:DISL:1,2017-08-05T15:00:00Z,30.2513,-88.0778,26.94,1111122 
DISL,ioos:station:DISL:DISL:1,2017-08-05T15:30:00Z,30.2513,-88.0778,26.84,1111122 
DISL,ioos:station:DISL:DISL:1,2017-08-05T16:00:00Z,30.2513,-88.0778,26.36,1111122 
DISL,ioos:station:DISL:DISL:1,2017-08-05T16:30:00Z,30.2513,-88.0778,25.93,1111122 
DISL,ioos:station:DISL:DISL:1,2017-08-05T17:00:00Z,30.2513,-88.0778,26.12,1111122 
DISL,ioos:station:DISL:DISL:1,2017-08-05T17:30:00Z,30.2513,-88.0778,27.8,1111122 
DISL,ioos:station:DISL:DISL:1,2017-08-05T18:00:00Z,30.2513,-88.0778,27.74,1111122 
DISL,ioos:station:DISL:DISL:1,2017-08-05T18:30:00Z,30.2513,-88.0778,27.68,1111122 
DISL,ioos:station:DISL:DISL:1,2017-08-05T19:00:00Z,30.2513,-88.0778,27.78,1111122 
DISL,ioos:station:DISL:DISL:1,2017-08-05T19:30:00Z,30.2513,-88.0778,27.68,1111122 
DISL,ioos:station:DISL:DISL:1,2017-08-05T20:00:00Z,30.2513,-88.0778,28.43,1111122 
DISL,ioos:station:DISL:DISL:1,2017-08-05T20:30:00Z,30.2513,-88.0778,28.74,1111122 
DISL,ioos:station:DISL:DISL:1,2017-08-05T21:00:00Z,30.2513,-88.0778,29.08,1111122 
DISL,ioos:station:DISL:DISL:1,2017-08-05T21:30:00Z,30.2513,-88.0778,28.69,1111122 
DISL,ioos:station:DISL:DISL:1,2017-08-05T22:00:00Z,30.2513,-88.0778,28.35,1111122 
DISL,ioos:station:DISL:DISL:1,2017-08-05T22:30:00Z,30.2513,-88.0778,27.99,1111122 
DISL,ioos:station:DISL:DISL:1,2017-08-05T23:00:00Z,30.2513,-88.0778,28.37,1111122 
DISL,ioos:station:DISL:DISL:1,2017-08-05T23:30:00Z,30.2513,-88.0778,28.42,1111122 
DISL,ioos:station:DISL:DISL:1,2017-08-06T00:00:00Z,30.2513,-88.0778,27.98,1111122 
DISL,ioos:station:DISL:DISL:1,2017-08-06T00:30:00Z,30.2513,-88.0778,27.91,1111122 
DISL,ioos:station:DISL:DISL:1,2017-08-06T01:00:00Z,30.2513,-88.0778,27.72,1111122 
DISL,ioos:station:DISL:DISL:1,2017-08-06T01:30:00Z,30.2513,-88.0778,27.66,1111122 
DISL,ioos:station:DISL:DISL:1,2017-08-06T02:00:00Z,30.2513,-88.0778,27.66,1111122 
DISL,ioos:station:DISL:DISL:1,2017-08-06T02:30:00Z,30.2513,-88.0778,27.67,1111122 
DISL,ioos:station:DISL:DISL:1,2017-08-06T03:00:00Z,30.2513,-88.0778,27.57,1111122 
DISL,ioos:station:DISL:DISL:1,2017-08-06T03:30:00Z,30.2513,-88.0778,27.54,1111122 
DISL,ioos:station:DISL:DISL:1,2017-08-06T04:00:00Z,30.2513,-88.0778,27.65,1111122 
DISL,ioos:station:DISL:DISL:1,2017-08-06T04:30:00Z,30.2513,-88.0778,27.54,1111122 
DISL,ioos:station:DISL:DISL:1,2017-08-06T05:00:00Z,30.2513,-88.0778,27.6,1111122 
DISL,ioos:station:DISL:DISL:1,2017-08-06T05:30:00Z,30.2513,-88.0778,27.63,1111122 
DISL,ioos:station:DISL:DISL:1,2017-08-06T06:00:00Z,30.2513,-88.0778,27.52,1111122 
DISL,ioos:station:DISL:DISL:1,2017-08-06T06:30:00Z,30.2513,-88.0778,27.66,1111122 
DISL,ioos:station:DISL:DISL:1,2017-08-06T07:00:00Z,30.2513,-88.0778,27.52,1111122 
DISL,ioos:station:DISL:DISL:1,2017-08-06T07:30:00Z,30.2513,-88.0778,27.66,1111122 
DISL,ioos:station:DISL:DISL:1,2017-08-06T08:00:00Z,30.2513,-88.0778,27.69,1111122 
DISL,ioos:station:DISL:DISL:1,2017-08-06T08:30:00Z,30.2513,-88.0778,27.66,1111122 
DISL,ioos:station:DISL:DISL:1,2017-08-06T09:00:00Z,30.2513,-88.0778,27.69,1111122 
DISL,ioos:station:DISL:DISL:1,2017-08-06T09:30:00Z,30.2513,-88.0778,27.8,1111122 
DISL,ioos:station:DISL:DISL:1,2017-08-06T10:00:00Z,30.2513,-88.0778,27.66,1111122 
DISL,ioos:station:DISL:DISL:1,2017-08-06T10:30:00Z,30.2513,-88.0778,27.69,1111122 
DISL,ioos:station:DISL:DISL:1,2017-08-06T11:00:00Z,30.2513,-88.0778,27.66,1111122 
DISL,ioos:station:DISL:DISL:1,2017-08-06T11:30:00Z,30.2513,-88.0778,27.67,1111122 
DISL,ioos:station:DISL:DISL:1,2017-08-06T12:00:00Z,30.2513,-88.0778,24.93,1111122 
DISL,ioos:station:DISL:DISL:1,2017-08-06T12:30:00Z,30.2513,-88.0778,26.31,1111122 
DISL,ioos:station:DISL:DISL:1,2017-08-06T13:00:00Z,30.2513,-88.0778,27.31,1111122 
DISL,ioos:station:DISL:DISL:1,2017-08-06T13:30:00Z,30.2513,-88.0778,27.41,1111122 
DISL,ioos:station:DISL:DISL:1,2017-08-06T14:00:00Z,30.2513,-88.0778,28.59,1111122 
DISL,ioos:station:DISL:DISL:1,2017-08-06T14:30:00Z,30.2513,-88.0778,29.04,1111122 
DISL,ioos:station:DISL:DISL:1,2017-08-06T15:00:00Z,30.2513,-88.0778,29.63,1111122 
DISL,ioos:station:DISL:DISL:1,2017-08-06T15:30:00Z,30.2513,-88.0778,29.52,1111122 
DISL,ioos:station:DISL:DISL:1,2017-08-06T16:00:00Z,30.2513,-88.0778,29.54,1111122 
DISL,ioos:station:DISL:DISL:1,2017-08-06T16:30:00Z,30.2513,-88.0778,29.88,1111122 
DISL,ioos:station:DISL:DISL:1,2017-08-06T17:00:00Z,30.2513,-88.0778,29.81,1111122 
DISL,ioos:station:DISL:DISL:1,2017-08-06T17:30:00Z,30.2513,-88.0778,29.47,1111122 
DISL,ioos:station:DISL:DISL:1,2017-08-06T18:00:00Z,30.2513,-88.0778,30.05,1111122 
DISL,ioos:station:DISL:DISL:1,2017-08-06T18:30:00Z,30.2513,-88.0778,30.22,1111122 
DISL,ioos:station:DISL:DISL:1,2017-08-06T19:00:00Z,30.2513,-88.0778,29.47,1111122 
DISL,ioos:station:DISL:DISL:1,2017-08-06T19:30:00Z,30.2513,-88.0778,29.68,1111122 
DISL,ioos:station:DISL:DISL:1,2017-08-06T20:00:00Z,30.2513,-88.0778,29.45,1111122 
DISL,ioos:station:DISL:DISL:1,2017-08-06T20:30:00Z,30.2513,-88.0778,29.86,1111122 
DISL,ioos:station:DISL:DISL:1,2017-08-06T21:00:00Z,30.2513,-88.0778,29.95,1111122 
DISL,ioos:station:DISL:DISL:1,2017-08-06T21:30:00Z,30.2513,-88.0778,29.98,1111122 
DISL,ioos:station:DISL:DISL:1,2017-08-06T22:00:00Z,30.2513,-88.0778,29.64,1111122 
DISL,ioos:station:DISL:DISL:1,2017-08-06T22:30:00Z,30.2513,-88.0778,29.31,1111122 
DISL,ioos:station:DISL:DISL:1,2017-08-06T23:00:00Z,30.2513,-88.0778,29.15,1111122 
DISL,ioos:station:DISL:DISL:1,2017-08-06T23:30:00Z,30.2513,-88.0778,29.09,1111122 